Location: Clanezzo
(45.7500°N, 9.6000°E)
Time: 19:46:15
(UTC+00:00)

Cosmos 773 Rocket - Pass Details

Date: 03 October 2021
Orbit: 745 x 777 km, 74.1° (Epoch: 24 October)

Event Time Altitude Azimuth Distance (km) Brightness Sun altitude
Rises 18:36:18 0° 318° (NW) 3,257 8.2 -17.9°
Reaches altitude 10° 18:40:39 10° 284° (WNW) 2,328 7.8 -18.7°
Maximum altitude 18:42:02 11° 268° (W) 2,256 7.5 -18.9°
Drops below altitude 10° 18:43:25 10° 253° (WSW) 2,325 7.4 -19.1°
Sets 18:47:46 0° 219° (SW) 3,247 7.6 -19.9°
